DAL2323 KAUS-KJFK

Flight info

Callsign DAL2323
Flight time N/A
Altitude 35000
Route ILEXY4 ZENZI IAH GUSTI Q22 CATLN Q64 SAWED Q108 SIE CAMRN4
Aircraft B738/M-SDE2E3FGHIRWXY/LB1

Departure

Time 2026-04-30 21:59
Airport Austin Bergstrom International Airport (KAUS)

Arrival

Time N/A
Airport John F. Kennedy International Airport (KJFK)
Time Latitude Longitude Altitude Speed Heading
2026-04-30 21:31 30.20277 -97.66369 526 ft 0 kts 183°
2026-04-30 21:46 30.20291 -97.66367 526 ft 2 kts 201°
2026-04-30 21:46 30.20305 -97.66358 526 ft 2 kts 221°
2026-04-30 21:47 30.20317 -97.66345 526 ft 2 kts 219°
2026-04-30 21:47 30.20332 -97.66339 526 ft 2 kts 178°
2026-04-30 21:47 30.20346 -97.66346 526 ft 2 kts 127°
2026-04-30 21:47 30.20348 -97.66349 526 ft 0 kts 128°
2026-04-30 21:51 30.20350 -97.66330 526 ft 6 kts 80°
2026-04-30 21:51 30.20349 -97.66247 526 ft 14 kts 91°
2026-04-30 21:51 30.20342 -97.66139 526 ft 13 kts 110°
2026-04-30 21:51 30.20265 -97.66095 526 ft 13 kts 180°
2026-04-30 21:52 30.20164 -97.66092 526 ft 16 kts 178°
2026-04-30 21:52 30.20050 -97.66104 526 ft 15 kts 221°
2026-04-30 21:52 30.20034 -97.66226 526 ft 17 kts 270°
2026-04-30 21:52 30.20024 -97.66369 526 ft 18 kts 238°
2026-04-30 21:53 30.19903 -97.66388 526 ft 19 kts 177°
2026-04-30 21:53 30.19844 -97.66359 526 ft 2 kts 118°
2026-04-30 21:53 30.19840 -97.66320 526 ft 7 kts 91°
2026-04-30 21:53 30.19841 -97.66240 526 ft 13 kts 88°
2026-04-30 21:54 30.19844 -97.66120 526 ft 17 kts 88°
2026-04-30 21:54 30.19813 -97.65990 526 ft 18 kts 156°
2026-04-30 21:54 30.19690 -97.65983 526 ft 17 kts 178°
2026-04-30 21:54 30.19572 -97.65980 526 ft 17 kts 178°
2026-04-30 21:55 30.19459 -97.65977 526 ft 16 kts 179°
2026-04-30 21:55 30.19326 -97.65974 527 ft 23 kts 179°
2026-04-30 21:55 30.19150 -97.65969 527 ft 26 kts 178°
2026-04-30 21:55 30.18977 -97.65964 527 ft 24 kts 179°
2026-04-30 21:56 30.18815 -97.65960 527 ft 23 kts 178°
2026-04-30 21:56 30.18659 -97.65964 526 ft 22 kts 187°
2026-04-30 21:56 30.18507 -97.65953 526 ft 22 kts 178°
2026-04-30 21:56 30.18355 -97.65947 526 ft 22 kts 179°
2026-04-30 21:57 30.18179 -97.65945 526 ft 31 kts 179°
2026-04-30 21:57 30.17987 -97.65939 526 ft 28 kts 177°
2026-04-30 21:57 30.17918 -97.65884 527 ft 12 kts 94°
2026-04-30 21:57 30.17917 -97.65790 527 ft 12 kts 88°
2026-04-30 21:58 30.17959 -97.65725 526 ft 11 kts
2026-04-30 21:58 30.18064 -97.65730 524 ft 21 kts 359°
2026-04-30 21:58 30.18402 -97.65736 524 ft 84 kts 358°
2026-04-30 21:58 30.19203 -97.65757 529 ft 144 kts
2026-04-30 21:59 30.20372 -97.65817 724 ft 179 kts
2026-04-30 21:59 30.21592 -97.65916 1650 ft 177 kts 358°
2026-04-30 21:59 30.22873 -97.66023 2257 ft 192 kts
2026-04-30 22:00 30.25750 -97.65806 3027 ft 224 kts
2026-04-30 22:00 30.29124 -97.65543 3813 ft 254 kts 16°
2026-04-30 22:00 30.30714 -97.64535 4340 ft 269 kts 46°
2026-04-30 22:01 30.31984 -97.62923 5224 ft 269 kts 52°
2026-04-30 22:01 30.33180 -97.61236 5937 ft 275 kts 53°
2026-04-30 22:01 30.34388 -97.59491 6545 ft 281 kts 53°
2026-04-30 22:01 30.35618 -97.57694 7099 ft 289 kts 53°
2026-04-30 22:02 30.36878 -97.55840 7719 ft 294 kts 53°
2026-04-30 22:02 30.38125 -97.53945 8340 ft 299 kts 60°
2026-04-30 22:02 30.38730 -97.51664 8901 ft 299 kts 93°
2026-04-30 22:02 30.38547 -97.49249 9293 ft 308 kts 97°
2026-04-30 22:03 30.38259 -97.46749 9774 ft 318 kts 97°
2026-04-30 22:03 30.37977 -97.44178 10286 ft 326 kts 96°
2026-04-30 22:03 30.37711 -97.41487 10584 ft 347 kts 99°
2026-04-30 22:03 30.37454 -97.38642 10844 ft 363 kts 98°
2026-04-30 22:04 30.37206 -97.35694 11333 ft 370 kts 98°
2026-04-30 22:04 30.36968 -97.32707 11908 ft 376 kts 98°
2026-04-30 22:04 30.36493 -97.26598 12986 ft 387 kts 97°
2026-04-30 22:05 30.36248 -97.23474 13494 ft 392 kts 97°
2026-04-30 22:05 30.35999 -97.20307 14004 ft 397 kts 97°
2026-04-30 22:05 30.35788 -97.17102 14492 ft 402 kts 95°
2026-04-30 22:05 30.35609 -97.13851 14980 ft 407 kts 95°
2026-04-30 22:06 30.35428 -97.10561 15452 ft 412 kts 95°
2026-04-30 22:06 30.35041 -97.03865 16414 ft 421 kts 95°
2026-04-30 22:06 30.34843 -97.00505 16871 ft 426 kts 95°
2026-04-30 22:07 30.34640 -96.97058 17333 ft 431 kts 95°
2026-04-30 22:07 30.34434 -96.93578 17798 ft 436 kts 95°
2026-04-30 22:07 30.34226 -96.90064 18250 ft 441 kts 95°
2026-04-30 22:07 30.34015 -96.86510 18648 ft 444 kts 95°
2026-04-30 22:08 30.33801 -96.82934 19087 ft 447 kts 95°
2026-04-30 22:08 30.33583 -96.79325 19506 ft 450 kts 95°
2026-04-30 22:08 30.33359 -96.75694 19937 ft 454 kts 95°
2026-04-30 22:08 30.33132 -96.72039 20346 ft 457 kts 95°
2026-04-30 22:09 30.32902 -96.68358 20751 ft 460 kts 95°
2026-04-30 22:09 30.32669 -96.64645 21157 ft 464 kts 95°
2026-04-30 22:09 30.32434 -96.60905 21554 ft 467 kts 94°
2026-04-30 22:09 30.32198 -96.57148 21951 ft 470 kts 94°
2026-04-30 22:10 30.31959 -96.53361 22329 ft 473 kts 94°
2026-04-30 22:10 30.31717 -96.49553 22701 ft 476 kts 94°
2026-04-30 22:10 30.31474 -96.45724 23061 ft 479 kts 94°
2026-04-30 22:10 30.31230 -96.41866 23402 ft 482 kts 94°
2026-04-30 22:11 30.30737 -96.34086 23989 ft 487 kts 94°
2026-04-30 22:11 30.30486 -96.30171 24267 ft 489 kts 94°
2026-04-30 22:11 30.30233 -96.26232 24545 ft 491 kts 94°